#timestamp,LO_Frequency,Hit,StdDev 
1593266415.0,286047023.4,N
1593266415.9,286047023.4,N
1593266435.8,286047028.4,N
1593266455.6,286047024.5,N
1593266475.5,286047018.1,N
1593266495.3,286047007.2,N
1593266515.1,286046995.5,N
1593266535.9,286046992.7,N
1593266555.7,286046987.6,N
1593266575.5,286046986.5,N
1593266595.4,286046982.8,N
1593266615.2,286046979.9,N
1593266635.1,286046977.9,N
1593266636.0,286046977.9,N
1593266655.8,286046971.0,N
1593266675.6,286046969.8,N
1593266695.5,286046970.2,N
1593266715.3,286046971.9,N
1593266735.2,286046973.1,N
1593266755.9,286046980.7,N
1593266775.7,286046991.9,N
1593266795.6,286047002.1,N
1593266815.4,286047005.3,N
1593266835.2,286047004.1,N
1593266855.1,286047005.5,N
1593266856.0,286047005.5,N
1593266875.8,286047001.2,N
1593266895.7,286047005.9,N
1593266915.5,286047005.1,N
1593266935.3,286046999.0,N
1593266955.2,286046996.2,N
1593266975.9,286046993.7,N
1593266995.7,286046991.5,N
1593267015.6,286046980.7,N
1593267035.4,286046977.7,N
1593267055.3,286046978.6,N
1593267075.1,286046979.7,N
1593267076.0,286046979.7,N
1593267095.8,286046985.2,N
1593267115.7,286046979.9,N
1593267135.5,286046983.0,N
1593267155.3,286046980.3,N
1593267175.2,286046978.3,N
1593267195.0,286046973.8,N
1593267195.9,286046973.8,N
1593267215.8,286046973.3,N
1593267235.6,286046970.6,N
1593267255.4,286046964.6,N
1593267275.3,286046965.4,N
1593267295.1,286046967.6,N
1593267315.8,286046969.2,N
1593267335.7,286047120.0,Y
1593267355.5,286046981.3,P
1593267375.4,286046981.5,P
1593267395.2,286046984.1,P
1593267415.0,286046987.4,Y
1593267415.9,286046987.4,P
1593267435.8,286047015.4,P
1593267455.6,286047016.3,N
1593267475.4,286047026.6,N
1593267495.3,286047024.3,N
1593267515.1,286047027.3,N
1593267535.9,286047027.9,N
1593267555.7,286047022.1,N
1593267575.5,286047020.7,N
1593267595.4,286047023.3,N
1593267615.2,286047030.0,N
1593267635.0,286047038.2,N
1593267635.9,286047038.2,N
1593267655.8,286047035.9,N
1593267675.6,286047032.6,N
1593267695.5,286047026.3,N
1593267715.3,286047021.6,N
1593267735.1,286047015.0,N
1593267755.9,286047010.1,N
1593267775.7,286047006.7,N
1593267795.5,286047003.4,N
1593267815.4,286047002.5,N
1593267835.2,286046999.1,N
1593267855.0,286046994.9,N
1593267856.0,286046994.9,N
1593267875.8,286046992.0,N
1593267895.6,286046992.1,N
1593267915.5,286046994.5,N
1593267935.3,286046991.9,N
1593267955.1,286046992.9,N
1593267975.9,286046995.8,N
1593267995.7,286047000.5,N
1593268015.5,286047003.9,N
1593268035.4,286047008.9,N
1593268055.2,286047011.9,N
1593268075.1,286047010.5,N
1593268076.0,286047010.5,N
1593268095.8,286047007.2,N
1593268115.6,286047005.8,N
1593268135.5,286047002.5,N
1593268155.3,286047001.8,N
1593268175.2,286047002.1,N
1593268195.9,286047002.0,N
1593268215.7,286047005.3,N
1593268235.6,286047009.3,N
1593268255.4,286047006.1,N
1593268275.2,286047004.8,N
1593268295.1,286047004.4,N
1593268296.0,286047004.4,N
1593268315.8,286047000.3,N
1593268335.7,286047000.9,N
1593268355.5,286047001.1,N
1593268375.4,286046999.8,N
1593268395.2,286046999.7,N
1593268415.0,286046999.7,N
1593268415.9,286046999.7,N
1593268435.8,286047000.8,N
1593268455.6,286046997.1,N
1593268475.4,286046997.9,N
1593268495.3,286046997.4,N
1593268515.1,286047001.3,N
1593268535.9,286047007.6,N
1593268555.7,286047007.9,N
1593268575.5,286047020.1,Y
1593268595.4,286047025.1,P
1593268615.2,286047025.0,N
1593268635.1,286047020.9,N
1593268636.0,286047020.9,N
1593268655.8,286047023.3,N
1593268675.6,286047023.9,Y
1593268695.5,286047004.0,P
1593268715.3,286046998.1,N
1593268735.1,286046996.3,N
1593268755.9,286046992.9,N
1593268775.7,286046992.8,N
1593268795.6,286046992.5,N
1593268815.4,286046989.1,N
1593268835.2,286046987.4,N
1593268855.1,286046990.7,N
1593268856.0,286046990.7,N
1593268875.8,286046991.3,N
1593268895.6,286046986.7,N
1593268915.5,286046987.5,N
1593268935.3,286046998.9,N
1593268955.2,286047003.8,N
1593268975.9,286047007.5,N
1593268995.7,286047014.7,N
1593269015.6,286047016.5,N
1593269035.4,286047016.5,N
1593269055.2,286047013.3,N
1593269075.1,286047013.9,N
1593269076.0,286047013.9,N
1593269095.8,286047006.6,N
1593269115.7,286047004.1,N
1593269135.5,286047002.8,N
1593269155.3,286047002.5,N
1593269175.2,286047007.9,N
1593269195.9,286047007.8,N
1593269215.7,286047008.7,N
1593269235.6,286047014.1,N
1593269255.4,286047025.1,N
1593269275.2,286047021.5,N
1593269295.1,286047018.3,N
1593269296.0,286047018.3,N
1593269315.8,286047018.2,N
1593269335.7,286047016.0,N
1593269355.5,286047016.5,N
1593269375.3,286047015.0,N
1593269395.2,286047015.3,N
1593269415.0,286047014.1,N
1593269415.9,286047014.1,N
1593269435.8,286047015.9,N
1593269455.6,286047019.6,N
1593269475.4,286047021.8,Y
1593269495.3,286047008.9,P
1593269515.1,286047008.3,P
1593269535.8,286047014.7,P
1593269555.7,286047022.8,Y
1593269575.5,286047010.9,P
1593269595.4,286047012.3,P
1593269615.2,286047009.7,P
1593269635.0,286047010.9,Y
1593269635.9,286047010.9,P
1593269655.8,286047003.1,P
1593269675.6,286047009.3,N
1593269695.5,286047017.2,Y
1593269715.3,286047009.2,P
1593269735.1,286047007.8,P
1593269755.9,286047007.1,P
1593269775.7,286047010.5,Y
1593269795.6,286047005.1,P
1593269815.4,286047007.3,P
1593269835.2,286047009.1,P
1593269855.1,286047012.1,Y
1593269856.0,286047012.1,P
1593269875.8,286047009.6,P
1593269895.7,286047016.2,P
1593269915.5,286047029.9,Y
1593269935.3,286047026.7,P
1593269955.2,286047033.9,P
1593269975.0,286047035.3,P
1593269975.9,286047035.3,Y
1593269995.8,286047015.2,P
